Location: Newark
(27.9675°N, 86.8869°E)
Time: 05:39:27
(UTC+00:00)

Transit 4A - All Passes

Search period start: 20 October 2019 00:00
Search period end: 30 October 2019 00:00
Orbit: 867 x 978 km, 66.8° (Epoch: 18 October)

Date Brightness Start Highest point End Pass type
(mag) Time Alt. Az. Time Alt. Az. Time Alt. Az.
20 Oct - 07:58:10 10° N 08:03:50 46° ENE 08:09:21 10° SE daylight
20 Oct - 09:45:50 10° WNW 09:49:41 18° WSW 09:53:30 10° SSW daylight
20 Oct - 21:11:46 10° SSE 21:17:09 29° ESE 21:22:30 10° NE visible
20 Oct - 22:57:35 10° SW 23:03:19 35° WNW 23:09:01 10° N visible
21 Oct - 08:07:17 10° NNW 08:13:12 75° ENE 08:18:58 10° SSE daylight
21 Oct - 09:58:30 10° W 09:58:44 10° WSW 09:59:00 10° WSW daylight
21 Oct - 21:20:17 10° S 21:26:21 47° ESE 21:32:21 10° NE visible
21 Oct - 23:07:57 10° WSW 23:12:51 23° WNW 23:17:43 10° N visible
22 Oct - 06:32:40 10° NNE 06:35:39 14° NE 06:38:37 10° E daylight
22 Oct - 08:16:38 10° NNW 08:22:29 69° WSW 08:28:13 10° SSE daylight
22 Oct - 21:29:15 10° SSW 21:35:36 74° ESE 21:41:54 10° NNE visible
22 Oct - 23:19:01 10° W 23:22:28 15° NW 23:25:54 10° NNW visible
23 Oct - 06:40:47 10° N 06:45:17 22° ENE 06:49:41 10° ESE daylight
23 Oct - 08:26:14 10° NW 08:31:42 41° WSW 08:37:05 10° S daylight
23 Oct - 19:56:32 10° SE 19:59:14 13° ESE 20:01:55 10° ENE visible
23 Oct - 21:38:34 10° SSW 21:44:55 72° WNW 21:51:13 10° NNE visible
24 Oct - 06:49:28 10° N 06:54:48 34° ENE 07:00:01 10° SE daylight
24 Oct - 08:36:11 10° NW 08:40:52 25° WSW 08:45:30 10° SSW daylight
24 Oct - 20:03:38 10° SSE 20:08:20 22° ESE 20:12:59 10° ENE visible
24 Oct - 21:48:14 10° SW 21:54:19 46° WNW 22:00:19 10° N visible
25 Oct - 06:58:27 10° NNW 07:04:13 55° ENE 07:09:52 10° SE daylight
25 Oct - 08:46:49 10° WNW 08:49:58 15° WSW 08:53:05 10° SW daylight
25 Oct - 20:11:49 10° S 20:17:30 35° ESE 20:23:07 10° NE visible
25 Oct - 21:58:18 10° WSW 22:03:46 30° WNW 22:09:12 10° N visible
26 Oct - 05:25:56 10° NE 05:26:27 10° NE 05:26:59 10° NE daylight
26 Oct - 07:07:39 10° NNW 07:13:34 88° ENE 07:19:21 10° SSE daylight
26 Oct - 20:20:30 10° S 20:26:43 56° ESE 20:32:50 10° NE visible
26 Oct - 22:08:53 10° W 22:13:20 20° NW 22:17:46 10° N visible
27 Oct - 05:32:30 10° NNE 05:36:09 17° NE 05:39:45 10° E daylight
27 Oct - 07:17:05 10° NNW 07:22:49 57° WSW 07:28:28 10° S daylight
27 Oct - 20:29:36 10° SSW 20:35:59 87° ESE 20:42:18 10° NNE visible
27 Oct - 22:20:25 10° WNW 22:22:59 13° NW 22:25:34 10° NNW visible
28 Oct - 05:40:53 10° N 05:45:44 26° ENE 05:50:29 10° ESE daylight
28 Oct - 07:26:47 10° NW 07:32:00 34° WSW 07:37:11 10° S daylight
28 Oct - 18:55:54 10° SE 18:59:31 16° ESE 19:03:07 10° ENE night (unlit)
28 Oct - 20:39:03 10° SW 20:45:20 61° WNW 20:51:32 10° NNE visible
29 Oct - 05:49:42 10° N 05:55:12 40° ENE 06:00:37 10° SE daylight
29 Oct - 07:36:55 10° WNW 07:41:09 21° WSW 07:45:21 10° SSW daylight
29 Oct - 19:03:32 10° SSE 19:08:39 26° ESE 19:13:43 10° NE night (unlit)
29 Oct - 20:48:51 10° SW 20:54:44 39° WNW 21:00:34 10° N visible
